GW0905 Weather Reports


Display with metric or nautical units.
time (UTC)temp
F
wind
direction
speed
MPH
gust
MPH
rain 1hr
in
rain 24hr
in
rain mn
in
humidity
%
barometer
mb
20260510230745 80 144 9.0 18.0 0.00 0.00 0.00 24 1018.4
20260510230017 81 143 10.0 20.0 0.00 0.00 0.00 23 1018.5
20260510225511 82 142 9.0 20.0 0.00 0.00 0.00 22 1018.3
20260510225005 82 166 8.0 20.0 0.00 0.00 0.00 21 1018.5
20260510224459 82 146 8.0 15.0 0.00 0.00 0.00 21 1018.4
20260510223953 82 112 9.0 20.0 0.00 0.00 0.00 23 1018.4
20260510223452 82 115 10.0 21.0 0.00 0.00 0.00 22 1018.3
20260510222953 83 215 8.0 21.0 0.00 0.00 0.00 21 1018.4
20260510222453 82 107 8.0 17.0 0.00 0.00 0.00 20 1018.4
20260510221953 82 128 9.0 17.0 0.00 0.00 0.00 21 1018.5
20260510221453 82 115 9.0 19.0 0.00 0.00 0.00 22 1018.6
20260510220953 82 71 9.0 19.0 0.00 0.00 0.00 22 1018.5
20260510220935 82 161 9.0 18.0 0.00 0.00 0.00 22 1018.5
20260510215953 82 95 10.0 18.0 0.00 0.00 0.00 22 1018.6
20260510215453 81 150 10.0 21.0 0.00 0.00 0.00 24 1018.6
20260510215212 81 159 10.0 22.0 0.00 0.00 0.00 22 1018.6
20260510214452 83 140 9.0 22.0 0.00 0.00 0.00 21 1018.6
20260510213953 84 168 6.0 17.0 0.00 0.00 0.00 20 1018.7
20260510213453 85 179 4.0 13.0 0.00 0.00 0.00 20 1018.6
20260510212953 84 171 4.0 15.0 0.00 0.00 0.00 20 1018.6
20260510212451 85 163 3.0 15.0 0.00 0.00 0.00 18 1019.0
20260510211951 85 181 4.0 10.0 0.00 0.00 0.00 10 1018.9
20260510211450 86 94 5.0 11.0 0.00 0.00 0.00 11 1019.0
20260510210951 85 146 4.0 11.0 0.00 0.00 0.00 10 1018.9
20260510210450 84 197 3.0 8.0 0.00 0.00 0.00 10 1018.9
20260510205951 84 215 4.0 11.0 0.00 0.00 0.00 10 1019.0
20260510205451 86 273 5.0 11.0 0.00 0.00 0.00 11 1019.0
20260510205212 85 198 6.0 16.0 0.00 0.00 0.00 12 1018.9
20260510204450 85 219 5.0 16.0 0.00 0.00 0.00 10 1019.0
20260510203946 84 54 3.0 9.0 0.00 0.00 0.00 14 1019.1
20260510203447 85 298 4.0 9.0 0.00 0.00 0.00 11 1019.1
20260510202946 84 256 4.0 9.0 0.00 0.00 0.00 11 1019.1
20260510202447 84 207 4.0 9.0 0.00 0.00 0.00 10 1019.2
20260510201947 85 148 4.0 9.0 0.00 0.00 0.00 11 1019.1
20260510201446 83 206 3.0 9.0 0.00 0.00 0.00 11 1019.2
20260510200947 85 155 3.0 10.0 0.00 0.00 0.00 11 1019.1
20260510200446 87 79 3.0 10.0 0.00 0.00 0.00 10 1019.2
20260510195948 86 92 3.0 8.0 0.00 0.00 0.00 13 1019.1
20260510195927 85 109 4.0 9.0 0.00 0.00 0.00 12 1019.2
20260510194947 85 111 3.0 9.0 0.00 0.00 0.00 14 1019.2
20260510194447 83 82 4.0 12.0 0.00 0.00 0.00 13 1019.3
20260510193947 83 173 5.0 12.0 0.00 0.00 0.00 11 1019.1
20260510193446 83 163 4.0 12.0 0.00 0.00 0.00 12 1019.1
20260510192946 83 169 3.0 11.0 0.00 0.00 0.00 14 1019.2
20260510192706 82 232 3.0 8.0 0.00 0.00 0.00 13 1019.2
20260510191947 83 132 3.0 8.0 0.00 0.00 0.00 14 1019.3
20260510191444 83 230 4.0 10.0 0.00 0.00 0.00 14 1019.5
20260510190941 83 315 4.0 10.0 0.00 0.00 0.00 13 1019.2
20260510190435 83 218 3.0 8.0 0.00 0.00 0.00 14 1019.3
20260510185930 83 284 3.0 8.0 0.00 0.00 0.00 13 1019.5
20260510185423 82 226 2.0 8.0 0.00 0.00 0.00 12 1019.7
20260510185147 82 264 3.0 6.0 0.00 0.00 0.00 15 1019.7
20260510184412 82 257 4.0 9.0 0.00 0.00 0.00 16 1019.7
20260510183906 81 158 3.0 9.0 0.00 0.00 0.00 13 1019.7
20260510183402 81 67 2.0 5.0 0.00 0.00 0.00 15 1019.8
20260510182902 82 182 3.0 7.0 0.00 0.00 0.00 15 1019.8
20260510182401 81 28 3.0 8.0 0.00 0.00 0.00 15 1019.8
20260510181900 81 0 2.0 8.0 0.00 0.00 0.00 14 1019.9
20260510181358 80 319 3.0 6.0 0.00 0.00 0.00 15 1019.9
20260510180857 80 325 3.0 10.0 0.00 0.00 0.00 17 1019.9
20260510180356 80 298 3.0 10.0 0.00 0.00 0.00 16 1019.8
20260510175856 80 350 3.0 9.0 0.00 0.00 0.00 15 1019.9
20260510175355 80 36 3.0 9.0 0.00 0.00 0.00 16 1019.9
20260510175120 80 82 2.0 6.0 0.00 0.00 0.00 18 1019.9
20260510174353 79 320 3.0 9.0 0.00 0.00 0.00 19 1019.9
20260510173852 80 304 3.0 9.0 0.00 0.00 0.00 16 1019.9
20260510173353 80 228 3.0 7.0 0.00 0.00 0.00 17 1020.0
20260510172852 80 248 3.0 7.0 0.00 0.00 0.00 19 1019.9
20260510172352 78 204 3.0 7.0 0.00 0.00 0.00 18 1019.9
20260510171851 78 22 4.0 8.0 0.00 0.00 0.00 19 1019.9
20260510171611 78 306 3.0 8.0 0.00 0.00 0.00 19 1020.0
20260510170848 78 327 3.0 9.0 0.00 0.00 0.00 19 1020.0
20260510170347 78 5 3.0 9.0 0.00 0.00 0.00 19 1020.0
20260510165841 77 287 2.0 7.0 0.00 0.00 0.00 21 1019.9
20260510165335 77 218 3.0 10.0 0.00 0.00 0.00 18 1020.0
20260510164830 77 29 3.0 10.0 0.00 0.00 0.00 19 1019.9
20260510164324 76 253 2.0 5.0 0.00 0.00 0.00 19 1019.9
20260510164038 76 243 2.0 4.0 0.00 0.00 0.00 19 1019.8
20260510163534 75 291 2.0 4.0 0.00 0.00 0.00 20 1019.8
20260510162806 75 355 3.0 7.0 0.00 0.00 0.00 21 1019.8
20260510162259 75 333 3.0 7.0 0.00 0.00 0.00 22 1019.8
20260510161753 75 329 3.0 6.0 0.00 0.00 0.00 20 1019.8
20260510161247 74 329 3.0 10.0 0.00 0.00 0.00 20 1019.8
20260510160741 74 69 3.0 10.0 0.00 0.00 0.00 20 1019.7
20260510160235 74 0 3.0 9.0 0.00 0.00 0.00 20 1019.7
20260510155953 74 335 4.0 10.0 0.00 0.00 0.00 21 1019.8
20260510155224 73 351 3.0 10.0 0.00 0.00 0.00 21 1019.7
20260510154718 73 9 3.0 10.0 0.00 0.00 0.00 22 1019.6
20260510154212 73 351 4.0 10.0 0.00 0.00 0.00 21 1019.6
20260510153707 73 355 4.0 9.0 0.00 0.00 0.00 21 1019.7
20260510153644 72 5 3.0 8.0 0.00 0.00 0.00 22 1019.6
20260510152919 72 32 3.0 9.0 0.00 0.00 0.00 22 1019.6
20260510152148 71 314 3.0 9.0 0.00 0.00 0.00 22 1019.5
20260510151642 71 51 4.0 9.0 0.00 0.00 0.00 23 1019.5
20260510151135 71 11 4.0 10.0 0.00 0.00 0.00 22 1019.3
20260510150629 70 44 4.0 11.0 0.00 0.00 0.00 23 1019.3
20260510150124 70 17 4.0 11.0 0.00 0.00 0.00 23 1019.3
20260510145617 70 60 3.0 9.0 0.00 0.00 0.00 23 1019.5
20260510145111 69 355 3.0 8.0 0.00 0.00 0.00 23 1019.3
20260510144833 69 34 3.0 8.0 0.00 0.00 0.00 25 1019.2
20260510144100 69 344 2.0 6.0 0.00 0.00 0.00 25 1019.2
20260510143554 69 32 2.0 5.0 0.00 0.00 0.00 25 1019.2
20260510143047 68 339 2.0 5.0 0.00 0.00 0.00 25 1019.2
20260510142542 68 294 2.0 4.0 0.00 0.00 0.00 25 1019.2
20260510142259 67 315 1.0 4.0 0.00 0.00 0.00 25 1019.1
20260510141530 67 305 1.0 6.0 0.00 0.00 0.00 26 1019.0
20260510141024 66 336 2.0 6.0 0.00 0.00 0.00 26 1019.0
20260510140742 65 342 2.0 4.0 0.00 0.00 0.00 28 1018.9
20260510140013 64 57 1.0 4.0 0.00 0.00 0.00 29 1018.9
20260510135506 64 350 1.0 4.0 0.00 0.00 0.00 30 1018.9
20260510135001 63 175 0.0 2.0 0.00 0.00 0.00 32 1018.7
20260510134454 63 175 0.0 0.0 0.00 0.00 0.00 35 1018.7
20260510134432 63 175 0.0 0.0 0.00 0.00 0.00 37 1018.7
20260510133442 63 175 0.0 1.0 0.00 0.00 0.00 34 1018.7
20260510132936 63 175 0.0 1.0 0.00 0.00 0.00 35 1018.7
20260510132430 63 175 0.0 1.0 0.00 0.00 0.00 35 1018.6
20260510132150 63 175 0.0 1.0 0.00 0.00 0.00 34 1018.6
20260510131418 62 175 0.0 2.0 0.00 0.00 0.00 33 1018.5
20260510130914 62 175 0.0 2.0 0.00 0.00 0.00 34 1018.5
20260510130413 62 175 0.0 2.0 0.00 0.00 0.00 32 1018.4
20260510125914 62 58 0.0 2.0 0.00 0.00 0.00 31 1018.5
20260510125638 62 58 2.0 4.0 0.00 0.00 0.00 30 1018.4
20260510124911 62 49 3.0 5.0 0.00 0.00 0.00 29 1018.2
20260510124412 62 56 3.0 5.0 0.00 0.00 0.00 29 1018.2
20260510123912 62 55 2.0 4.0 0.00 0.00 0.00 29 1018.0
20260510123412 63 59 1.0 4.0 0.00 0.00 0.00 29 1018.0
20260510122912 63 81 0.0 2.0 0.00 0.00 0.00 28 1018.0
20260510122412 64 165 0.0 3.0 0.00 0.00 0.00 28 1017.8
20260510121912 64 148 0.0 3.0 0.00 0.00 0.00 27 1017.8
20260510121411 65 117 0.0 0.0 0.00 0.00 0.00 26 1017.6
20260510120909 65 117 0.0 0.0 0.00 0.00 0.00 26 1017.6
20260510120410 66 117 0.0 0.0 0.00 0.00 0.00 25 1017.5
20260510115909 66 117 0.0 2.0 0.00 0.00 0.00 25 1017.3
20260510115625 66 117 0.0 2.0 0.00 0.00 0.00 24 1017.2
20260510114908 66 163 1.0 5.0 0.00 0.00 0.00 23 1017.3
20260510114407 67 163 1.0 5.0 0.00 0.00 0.00 23 1017.3
20260510113908 67 215 0.0 4.0 0.00 0.00 0.00 24 1017.3
20260510113849 67 84 0.0 3.0 0.00 0.00 0.00 24 1017.2
20260510113124 68 84 1.0 8.0 0.00 0.00 0.00 23 1017.1
20260510112408 68 89 3.0 8.0 0.00 0.00 0.00 22 1016.9
20260510111908 68 84 4.0 11.0 0.00 0.00 0.00 23 1017.0
20260510111407 68 86 3.0 11.0 0.00 0.00 0.00 23 1017.0
20260510110908 67 107 4.0 11.0 0.00 0.00 0.00 23 1017.1
20260510110408 65 175 4.0 11.0 0.00 0.00 0.00 24 1017.2
20260510105907 64 121 2.0 9.0 0.00 0.00 0.00 26 1017.2
20260510105408 64 152 1.0 3.0 0.00 0.00 0.00 27 1017.6
20260510104907 64 97 0.0 2.0 0.00 0.00 0.00 27 1017.8
20260510104408 64 84 0.0 1.0 0.00 0.00 0.00 26 1018.0
20260510104137 64 84 0.0 1.0 0.00 0.00 0.00 26 1018.0
20260510103407 64 84 0.0 1.0 0.00 0.00 0.00 27 1017.7
20260510103131 65 76 0.0 1.0 0.00 0.00 0.00 26 1017.6
20260510102408 65 76 0.0 2.0 0.00 0.00 0.00 26 1017.5
20260510101907 65 76 0.0 3.0 0.00 0.00 0.00 26 1017.5
20260510101408 65 86 1.0 4.0 0.00 0.00 0.00 26 1017.2
20260510101127 65 76 2.0 4.0 0.00 0.00 0.00 25 1017.0
20260510100407 65 80 2.0 4.0 0.00 0.00 0.00 25 1016.9
20260510095908 65 90 2.0 4.0 0.00 0.00 0.00 25 1016.9
20260510095632 65 110 2.0 3.0 0.00 0.00 0.00 24 1016.8
20260510094908 65 103 1.0 3.0 0.00 0.00 0.00 24 1016.9
20260510094407 65 117 0.0 1.0 0.00 0.00 0.00 24 1017.0
20260510094133 65 200 0.0 1.0 0.00 0.00 0.00 24 1017.1
20260510093406 65 200 0.0 1.0 0.00 0.00 0.00 24 1017.0
20260510093127 65 275 0.0 2.0 0.00 0.00 0.00 23 1017.0
20260510092359 65 275 1.0 3.0 0.00 0.00 0.00 23 1017.0
20260510092114 65 261 1.0 5.0 0.00 0.00 0.00 23 1017.0
20260510091346 66 221 1.0 5.0 0.00 0.00 0.00 23 1017.0
20260510090842 66 304 0.0 2.0 0.00 0.00 0.00 23 1016.9
20260510090335 66 297 0.0 2.0 0.00 0.00 0.00 23 1016.8
20260510085829 66 310 0.0 2.0 0.00 0.00 0.00 23 1016.6
20260510085323 66 304 0.0 2.0 0.00 0.00 0.00 22 1016.6
20260510084817 66 312 0.0 2.0 0.00 0.00 0.00 23 1016.6
20260510084311 66 305 0.0 2.0 0.00 0.00 0.00 22 1016.4
20260510083805 67 59 0.0 2.0 0.00 0.00 0.00 22 1016.2
20260510083259 67 347 0.0 4.0 0.00 0.00 0.00 22 1016.1
20260510082753 67 344 1.0 4.0 0.00 0.00 0.00 21 1016.1
20260510082247 67 5 1.0 3.0 0.00 0.00 0.00 21 1015.8
20260510081741 67 5 1.0 4.0 0.00 0.00 0.00 21 1015.8
20260510081235 67 321 2.0 6.0 0.00 0.00 0.00 21 1015.8
20260510080729 66 348 2.0 6.0 0.00 0.00 0.00 21 1015.7
20260510080223 66 338 1.0 4.0 0.00 0.00 0.00 21 1015.7
20260510075717 66 48 1.0 4.0 0.00 0.00 0.00 22 1015.6
20260510075211 66 55 1.0 5.0 0.00 0.00 0.00 21 1015.6
20260510074705 66 67 2.0 6.0 0.00 0.00 0.00 21 1015.6
20260510074159 66 0 2.0 6.0 0.00 0.00 0.00 22 1015.6
20260510073653 66 335 2.0 8.0 0.00 0.00 0.00 21 1015.6
20260510073406 66 0 2.0 8.0 0.00 0.00 0.00 20 1015.6
20260510072640 67 320 1.0 5.0 0.00 0.00 0.00 20 1015.6
20260510072134 67 15 2.0 7.0 0.00 0.00 0.00 19 1015.5
20260510071628 67 329 2.0 7.0 0.00 0.00 0.00 19 1015.3
20260510071123 68 333 2.0 5.0 0.00 0.00 0.00 19 1015.2
20260510070616 68 326 2.0 5.0 0.00 0.00 0.00 19 1015.3
20260510070111 68 350 2.0 8.0 0.00 0.00 0.00 18 1015.2
20260510065605 69 306 3.0 8.0 0.00 0.00 0.00 18 1015.3
20260510065059 69 355 3.0 8.0 0.00 0.00 0.00 18 1015.1
20260510064553 69 327 2.0 8.0 0.00 0.00 0.00 17 1015.1
20260510064320 69 355 2.0 4.0 0.00 0.00 0.00 18 1015.0
20260510063541 69 323 2.0 6.0 0.00 0.00 0.00 17 1015.0
20260510063036 69 333 2.0 6.0 0.00 0.00 0.00 17 1014.9
20260510062529 69 349 3.0 9.0 0.00 0.00 0.00 17 1014.9
20260510062024 69 10 3.0 9.0 0.00 0.00 0.00 17 1014.9
20260510061517 69 351 3.0 9.0 0.00 0.00 0.00 17 1014.8
20260510061017 69 5 3.0 8.0 0.00 0.00 0.00 17 1014.8
20260510060517 69 28 3.0 8.0 0.00 0.00 0.00 17 1014.6
20260510060017 69 19 2.0 8.0 0.00 0.00 0.00 16 1014.8
20260510055517 69 25 2.0 8.0 0.00 0.00 0.00 17 1014.6
20260510055017 69 55 2.0 8.0 0.00 0.00 0.00 16 1014.6
20260510054516 70 28 2.0 5.0 0.00 0.00 0.00 16 1014.6
20260510054013 70 10 2.0 5.0 0.00 0.00 0.00 16 1014.8
20260510053511 71 344 2.0 5.0 0.00 0.00 0.00 16 1014.5
20260510053010 71 334 2.0 4.0 0.00 0.00 0.00 15 1014.5
20260510052509 71 325 2.0 4.0 0.00 0.00 0.00 15 1014.4
20260510052009 72 329 1.0 3.0 0.00 0.00 0.00 15 1014.3
20260510051509 72 297 2.0 6.0 0.00 0.00 0.00 14 1014.2
20260510051009 72 342 3.0 6.0 0.00 0.00 0.00 14 1014.2
20260510050509 73 298 2.0 5.0 0.00 0.00 0.00 14 1014.1
20260510050009 73 355 2.0 5.0 0.00 0.00 0.00 14 1014.1
20260510045728 73 10 2.0 5.0 0.00 0.00 0.00 14 1014.1
20260510045008 73 326 2.0 8.0 0.00 0.00 0.00 14 1014.1
20260510044507 73 355 2.0 8.0 0.00 0.00 0.00 14 1014.1
20260510044001 74 24 1.0 5.0 0.00 0.00 0.00 13 1014.1
20260510043501 74 40 1.0 8.0 0.00 0.00 0.00 14 1014.1
20260510043002 74 344 1.0 8.0 0.00 0.00 0.00 13 1014.1
20260510042501 75 346 1.0 6.0 0.00 0.00 0.00 13 1013.9
20260510041959 75 85 2.0 7.0 0.00 0.00 0.00 13 1013.9
20260510041457 75 17 2.0 7.0 0.00 0.00 0.00 12 1013.9
20260510040957 76 59 2.0 9.0 0.00 0.00 0.00 12 1013.9
20260510040457 76 28 2.0 9.0 0.00 0.00 0.00 12 1013.9
20260510035957 76 54 2.0 5.0 0.00 0.00 0.00 12 1013.8
20260510035457 76 49 2.0 9.0 0.00 0.00 0.00 12 1013.8
20260510035224 77 333 3.0 10.0 0.00 0.00 0.00 12 1013.8
20260510034457 77 0 3.0 10.0 0.00 0.00 0.00 11 1013.8
20260510033957 78 343 3.0 8.0 0.00 0.00 0.00 11 1013.6
20260510033724 78 336 4.0 14.0 0.00 0.00 0.00 11 1013.6
20260510032958 78 311 6.0 14.0 0.00 0.00 0.00 11 1013.5
20260510032457 77 321 5.0 12.0 0.00 0.00 0.00 11 1013.4
20260510031957 77 32 4.0 11.0 0.00 0.00 0.00 12 1013.2
20260510031726 76 355 2.0 9.0 0.00 0.00 0.00 14 1013.1
20260510030951 76 5 1.0 5.0 0.00 0.00 0.00 15 1013.0
20260510030445 76 346 1.0 4.0 0.00 0.00 0.00 16 1012.9
20260510030200 77 48 0.0 2.0 0.00 0.00 0.00 15 1012.9
20260510025659 77 5 0.0 2.0 0.00 0.00 0.00 16 1012.9
20260510024927 77 22 0.0 2.0 0.00 0.00 0.00 15 1012.8
20260510024423 77 24 0.0 2.0 0.00 0.00 0.00 16 1012.5
20260510024148 78 0 0.0 1.0 0.00 0.00 0.00 15 1012.4
20260510023423 78 0 0.0 2.0 0.00 0.00 0.00 15 1012.4
20260510023143 78 0 0.0 2.0 0.00 0.00 0.00 14 1012.3
20260510022423 79 62 0.0 2.0 0.00 0.00 0.00 15 1012.2
20260510021923 79 62 0.0 2.0 0.00 0.00 0.00 14 1012.1
20260510021423 79 62 0.0 4.0 0.00 0.00 0.00 14 1012.2
20260510020923 80 62 1.0 5.0 0.00 0.00 0.00 14 1012.2
20260510020422 80 82 2.0 5.0 0.00 0.00 0.00 14 1012.2
20260510015923 80 61 2.0 7.0 0.00 0.00 0.00 13 1012.1
20260510015423 80 339 2.0 7.0 0.00 0.00 0.00 13 1012.2
20260510014922 80 355 1.0 5.0 0.00 0.00 0.00 13 1012.1
20260510014423 81 338 1.0 3.0 0.00 0.00 0.00 13 1012.1
20260510013921 81 322 1.0 3.0 0.00 0.00 0.00 13 1012.1
20260510013418 81 265 2.0 8.0 0.00 0.00 0.00 13 1012.1
20260510012919 81 329 3.0 9.0 0.00 0.00 0.00 12 1012.1
20260510012418 81 9 6.0 16.0 0.00 0.00 0.00 12 1012.1
20260510011919 82 308 6.0 17.0 0.00 0.00 0.00 12 1012.1
20260510011413 82 326 3.0 17.0 0.00 0.00 0.00 12 1012.3
20260510010912 82 283 4.0 13.0 0.00 0.00 0.00 11 1012.2
20260510010416 82 284 3.0 13.0 0.00 0.00 0.00 12 1012.2
20260510005908 82 140 4.0 12.0 0.00 0.00 0.00 12 1012.1
20260510005407 82 265 5.0 14.0 0.00 0.00 0.00 11 1012.0
20260510004907 83 180 5.0 14.0 0.00 0.00 0.00 11 1012.2
20260510004407 83 235 5.0 11.0 0.00 0.00 0.00 11 1012.1
20260510003906 83 213 3.0 10.0 0.00 0.00 0.00 10 1011.8
20260510003407 84 283 2.0 6.0 0.00 0.00 0.00 10 1011.7
20260510002907 84 218 2.0 7.0 0.00 0.00 0.00 10 1011.7
20260510002406 85 306 3.0 8.0 0.00 0.00 0.00 10 1011.7
20260510001902 85 242 4.0 12.0 0.00 0.00 0.00 10 1011.7
20260510001403 85 219 6.0 18.0 0.00 0.00 0.00 10 1011.7
20260510001125 86 290 8.0 18.0 0.00 0.00 0.00 10 1011.7
20260510000403 86 209 7.0 18.0 0.00 0.00 0.00 10 1011.7
20260509235903 87 227 6.0 17.0 0.00 0.00 0.00 10 1011.8
20260509235359 87 232 6.0 17.0 0.00 0.00 0.00 10 1011.8
20260509235122 87 228 6.0 16.0 0.00 0.00 0.00 10 1011.6
20260509234358 87 275 5.0 13.0 0.00 0.00 0.00 10 1011.7
20260509233859 87 287 4.0 12.0 0.00 0.00 0.00 10 1011.7
20260509233359 87 296 4.0 12.0 0.00 0.00 0.00 10 1011.7
20260509232858 87 283 5.0 13.0 0.00 0.00 0.00 10 1011.8
20260509232359 87 317 7.0 17.0 0.00 0.00 0.00 9 1011.8
20260509231859 87 274 6.0 17.0 0.00 0.00 0.00 8 1011.8
20260509231359 88 319 5.0 13.0 0.00 0.00 0.00 9 1011.6
20260509230858 87 267 7.0 15.0 0.00 0.00 0.00 9 1011.7